Regional Weather Roundup
Issued by NWS

Home | Current Version | Previous Version | Text Only | Print | Product List | Glossary On
Versions: 1 2 3 4 5 6 7 8 9 10 11 12 13 14 15 16 17 18 19 20 21 22 23 24 25 26 27 28 29 30 31 32 33 34 35 36 37 38 39 40 41 42 43 44 45 46 47 48 49 50
000
ASUS44 KBMX 301610
RWRAL

ALABAMA REGIONAL WEATHER ROUNDUP
NATIONAL WEATHER SERVICE BIRMINGHAM AL
1000 AM CST FRI JAN 30 2015

NOTE: "FAIR" INDICATES FEW OR NO CLOUDS BELOW 12,000 FEET
WITH NO SIGNIFICANT WEATHER AND/OR OBSTRUCTIONS TO VISIBILITY.

THE REMARK "TC" DENOTES TEMPERATURE IN DEGREES CELSIUS.

ALZ001>011-014-016>018-020-301700-
NORTH ALABAMA

CITY           SKY/WX    TMP DP  RH WIND       PRES   REMARKS
MUSCLE SHOALS  PTSUNNY   42  25  50 NE8G17    30.49R
HUNTSVILLE     PTSUNNY   41  26  55 N15       30.47R
DECATUR        PTSUNNY   39  25  57 N13       30.48R WCI  31
HALEYVILLE       N/A     40  27  60 N12       30.46R WCI  33
GADSDEN        PTSUNNY   45  27  49 N10       30.42R
$$

ALZ012-013-022-023-030>036-040>044-301700-
WEST CENTRAL ALABAMA

CITY           SKY/WX    TMP DP  RH WIND       PRES   REMARKS
TUSCALOOSA     SUNNY     49  29  46 N12G23    30.44R
$$

ALZ015-024>027-033>036-040>044-301700-
CENTRAL ALABAMA

CITY           SKY/WX    TMP DP  RH WIND       PRES   REMARKS
BIRMINGHAM     MOSUNNY   45  27  49 N15G25    30.43R
MONTGOMERY     SUNNY     50  30  46 N10       30.40R
SHELBY CO ARPT SUNNY     47  28  47 N8        30.40R
MAXWELL AFB    SUNNY     48  30  49 N8        30.39R
GREENVILLE     FAIR      48  29  47 N14       30.37S
$$

ALZ019-021-028-029-037-038-045>048-301700-
EAST CENTRAL ALABAMA

CITY           SKY/WX    TMP DP  RH WIND       PRES   REMARKS
ANNISTON       SUNNY     46  26  45 N10G17    30.40R
ALEXANDER CITY SUNNY     49  26  39 N14G22    30.36S
AUBURN         SUNNY     45  27  49 N14       30.37R
$$

ALZ051>064-301700-
SOUTHWEST ALABAMA

CITY           SKY/WX    TMP DP  RH WIND       PRES   REMARKS
MOBILE         PTSUNNY   49  32  52 N16       30.39R
BROOKLEY FIELD SUNNY     51  33  50 N14       30.40R
EVERGREEN      SUNNY     50  32  50 N16       30.39R
$$

ALZ049-050-065>069-301700-
SOUTHEAST ALABAMA

CITY           SKY/WX    TMP DP  RH WIND       PRES   REMARKS
DOTHAN         SUNNY     49  32  52 N14       30.36R
OZARK          SUNNY     49  31  48 N8        30.34R
TROY           SUNNY     49  29  46 N14       30.37R
EUFAULA        FAIR      50  30  46 N8        30.33S
$$


USA.gov is the U.S. government's official web portal to all federal, state and local government web resources and services.